This is the latest recevied weather packets stored in our database for station/object KB9PMA-1. If no packets are shown the sender has not sent any weather packets the latest 10 day(s).
| Time | Temp. | Humidity | Pressure | Rain* | Wind** | Luminosity | Snow |
|---|---|---|---|---|---|---|---|
| 1778173671 | 13.89° C | 45% | 1016.5 hPa | 0 mm | - | - | - |
| 1778173371 | 13.89° C | 50% | 1016.5 hPa | 0 mm | - | - | - |
| 1778173071 | 13.33° C | 44% | 1016.5 hPa | 0 mm | - | - | - |
| 1778172771 | 13.89° C | 45% | 1016.6 hPa | 0 mm | - | - | - |
| 1778172471 | 13.89° C | 47% | 1016.7 hPa | 0 mm | - | - | - |
| 1778172171 | 13.33° C | 50% | 1016.7 hPa | 0 mm | - | - | - |
| 1778171871 | 13.33° C | 46% | 1016.8 hPa | 0 mm | - | - | - |
| 1778171571 | 13.33° C | 49% | 1016.8 hPa | 0 mm | - | - | - |
| 1778171271 | 13.33° C | 53% | 1016.8 hPa | 0 mm | - | - | - |
| 1778170971 | 12.78° C | 49% | 1016.9 hPa | 0 mm | - | - | - |
| 1778170671 | 12.78° C | 50% | 1016.8 hPa | 0 mm | - | - | - |
| 1778170371 | 12.78° C | 48% | 1016.9 hPa | 0 mm | - | - | - |
| 1778170071 | 12.78° C | 49% | 1016.9 hPa | 0 mm | - | - | - |
| 1778169771 | 12.22° C | 51% | 1016.9 hPa | 0 mm | - | - | - |
| 1778169471 | 12.22° C | 53% | 1017.1 hPa | 0 mm | - | - | - |
| 1778169171 | 12.22° C | 54% | 1017 hPa | 0 mm | - | - | - |
| 1778168871 | 12.22° C | 51% | 1017 hPa | 0 mm | - | - | - |
| 1778168571 | 12.22° C | 51% | 1017 hPa | 0 mm | - | - | - |
| 1778168271 | 12.22° C | 50% | 1017 hPa | 0 mm | - | - | - |
| 1778167971 | 11.67° C | 53% | 1016.9 hPa | 0 mm | - | - | - |
| 1778167671 | 11.67° C | 50% | 1016.8 hPa | 0 mm | - | - | - |
| 1778167371 | 11.67° C | 51% | 1016.7 hPa | 0 mm | - | - | - |
| 1778167071 | 11.67° C | 52% | 1016.7 hPa | 0 mm | - | - | - |
| 1778166771 | 11.67° C | 56% | 1016.8 hPa | 0 mm | - | - | - |
| 1778166471 | 11.67° C | 54% | 1016.8 hPa | 0 mm | - | - | - |
* Rain latest hour (hover to see other rain measurements)
** Current wind speed in m/s (hover to see current wind gust speed)